« Back
NWS Peachtree City, Ga » Text Product » GA Regional Weather Roundup


Printer-friendly Version
Current Version              Previous Versions:   1  2  3  4  5  6  7  8  9  

Regional Weather Roundup

826
ASUS42 KFFC 021303
RWRGA
WEATHER ROUNDUP FOR GEORGIA
NATIONAL WEATHER SERVICE PEACHTREE CITY GA
900 AM EDT TUE SEP 02 2014

NOTE: "FAIR" INDICATES FEW OR NO CLOUDS BELOW 12,000 FEET WITH NO
SIGNIFICANT WEATHER AND/OR OBSTRUCTIONS TO VISIBILITY.

* = USE WITH CAUTION. THE STATIONS MARKED WITH AN ASTERISK MAY NOT
REPORT WEATHER SUCH AS PRECIPITATION, FOG, OR THUNDER AND ARE NOT
QUALITY CONTROLLED BY NWS.

THE REMARK "TC" DENOTES TEMPERATURE READING IN DEGREES CELSIUS.

GAZ001>058-021400-
NORTH GEORGIA

CITY           SKY/WX    TMP DP  RH WIND       PRES   REMARKS
ATLANTA        MOSUNNY   76  71  85 W3        30.13R
ATHENS         CLOUDY    74  71  91 CALM      30.12R
CHAMBLEE       SUNNY     75  70  84 CALM      30.13R
PEACHTREE CITY SUNNY     74  71  91 SE3       30.14R
ROME           SUNNY     74  70  87 CALM      30.11S
WEST ATLANTA   SUNNY     75  70  84 CALM      30.13R
GAINESVILLE    MOSUNNY   75  71  87 SW3       30.15S
CARTERSVILLE   SUNNY     75  70  84 CALM      30.13R


CITY           SKY/WX    TMP DP  RH WIND       PRES   REMARKS
DALTON*        MOSUNNY   73  72  94 S3        30.12S
LAWRENCEVILLE* SUNNY     73  66  78 CALM      30.13R
MARIETTA       MOSUNNY   77  71  84 W6        30.13S
KENNESAW*      SUNNY     75  70  83 W6        30.15R
$$

GAZ059>098-102>109-021400-
CENTRAL GEORGIA

CITY           SKY/WX    TMP DP  RH WIND       PRES   REMARKS
AUGUSTA-BUSH   CLOUDY    77  73  87 CALM      30.10R
AUGUSTA-DANIEL CLOUDY    79  72  79 NW6       30.11S
COLUMBUS       SUNNY     77  72  84 SE3       30.13R
MACON          MOSUNNY   75  74  96 CALM      30.12R
ROBINS AFB     MOSUNNY   74  73  94 N2        30.12R


CITY           SKY/WX    TMP DP  RH WIND       PRES   REMARKS
LAGRANGE*      SUNNY     79  75  89 CALM      30.14R
SYLVANIA*      SUNNY     77  74  91 CALM      30.11S
$$

GAZ099>101-110>166-021400-
SOUTH GEORGIA

CITY           SKY/WX    TMP DP  RH WIND       PRES   REMARKS
SAVANNAH       MOSUNNY   82  74  76 SW3       30.10R
VALDOSTA       SUNNY     77  73  87 CALM      30.11R
ALMA           PTSUNNY   81  73  76 CALM      30.11R
ST SIMONS      SUNNY     81  74  79 S6        30.09S
FT STEWART     SUNNY     80  74  81 E1        30.08S
ALBANY         MOSUNNY   78  73  84 W5        30.13R
HUNTER AFB     SUNNY     83  76  81 SW5       30.08R HX  91
MOODY AFB      MOSUNNY   77  72  85 CALM      30.11R
BRUNSWICK      SUNNY     82  73  74 CALM      30.10S


CITY           SKY/WX    TMP DP  RH WIND       PRES   REMARKS
BAINBRIDGE*    SUNNY     81  77  89 CALM      30.12S
MOULTRIE*      MOSUNNY   77  73  88 CALM      30.13R
VIDALIA*       LGT RAIN  77  75  94 CALM      30.12R
WAYCROSS*      PTSUNNY   81  77  87 CALM      30.10S
DOUGLAS*       MOSUNNY   77  73  88 CALM      30.13R
$$



USA.gov is the U.S. government's official web portal to all federal, state and local government web resources and services.